User: anonymous   Login
Location: Grange Verzio
(44.5000°N, 6.9833°E)
Time: 07:48:21
(UTC+00:00)
Language:

Cosmos 2219 Rocket - Orbit

View from above orbital plane
View from above orbital plane
View from above satellite
View from above satellite

Ground track
Ground track

The orbit data is extracted from the following two-line orbital elements,

1 22220U 92076B   24104.74827380 -.00000162  00000-0 -57276-4 0  9994
2 22220  71.0007 212.0355 0010568  71.1173  39.0180 14.16642207623402
Epoch (UTC): 13 April 2024 17:57:30
Eccentricity: 0.0010568
inclination: 71.0007°
perigee height: 829 km
apogee height: 844 km
right ascension of ascending node: 212.0355°
argument of perigee: 71.1173°
revolutions per day: 14.16642207
mean anomaly at epoch: 39.0180°
orbit number at epoch: 62340

The dashed part of the orbit path shows where the satellite is in the earth's shadow,  

DLR